Hebbronville, TX

1:10 AM CST on December 12, 2017 (GMT -0600)
Hogg County

Weather History for KHBV - October, 2012

Change the Weather History Date:

Friday, October 5, 2012

  Actual Average (KALI) Record (KALI)
Temperature  
Mean Temperature 78 °F -  
Max Temperature 91 °F 84 °F 97 °F (2016)
Min Temperature 66 °F 65 °F 57 °F (2010)
Cooling Degree Days 14    
Growing Degree Days 28 (Base 50)    
Moisture  
Dew Point 63 °F    
Average Humidity 65    
Maximum Humidity 96    
Minimum Humidity 28    
Precipitation  
Precipitation 0.00 in - - ()
Sea Level Pressure  
Sea Level Pressure 30.04 in    
Wind  
Wind Speed 8 mph (SE)    
Max Wind Speed 15 mph    
Max Gust Speed 21 mph    
Visibility 9 miles    
Events      
Averages and records for this station are not official NWS values.
T = Trace of Precipitation, MM = Missing Value Source: NWS Daily Summary

Daily Weather History Graph

Daily Weather History Graph

Search for Another Location

Airport or City:

Trip Planner

Search our weather history database for the weather conditions in past years. The results will help you decide how hot, cold, wet, or windy it might be!

Date:

Astronomy

Oct. 05, 2012 Rise Set
Actual Time 7:29 AM CDT 7:16 PM CDT
Civil Twilight 7:06 AM CDT 7:39 PM CDT
Nautical Twilight 6:39 AM CDT 8:06 PM CDT
Astronomical Twilight 6:12 AM CDT 8:33 PM CDT
Moon 11:05 PM CDT (10/5) 12:14 PM CDT (10/5)
Length of Visible Light 12h 32m
Length of Day
11h 46m
Waning Gibbous, 74% of the Moon is Illuminated
Oct 5
Waning Gibbous
Oct 8
Last Quarter
Oct 15
New
Oct 21
First Quarter
Oct 29
Full

Hourly Weather History & Observations

Time (CDT) Temp. Heat Index Dew Point Humidity Pressure Visibility Wind Dir Wind Speed Gust Speed Precip Events Conditions
12:15 AM 75.7 °F - 67.1 °F 74% 30.08 in 10.0 mi SE 9.2 mph - N/A   Clear
12:35 AM 75.0 °F - 67.3 °F 77% 30.08 in 10.0 mi SE 8.1 mph - N/A   Clear
12:55 AM 74.5 °F - 67.5 °F 79% 30.08 in 10.0 mi SE 8.1 mph - N/A   Clear
1:15 AM 74.1 °F - 67.6 °F 80% 30.07 in 10.0 mi SSE 8.1 mph - N/A   Clear
1:35 AM 73.6 °F - 67.8 °F 82% 30.07 in 10.0 mi SE 8.1 mph - N/A   Clear
1:55 AM 73.2 °F - 68.0 °F 84% 30.06 in 10.0 mi SE 8.1 mph - N/A   Clear
2:15 AM 72.5 °F - 67.8 °F 85% 30.06 in 10.0 mi SSE 6.9 mph - N/A   Clear
2:35 AM 72.0 °F - 67.6 °F 86% 30.06 in 10.0 mi SSE 5.8 mph - N/A   Clear
2:55 AM 71.6 °F - 67.8 °F 88% 30.06 in 10.0 mi SSE 6.9 mph - N/A   Clear
3:15 AM 71.1 °F - 67.6 °F 89% 30.05 in 10.0 mi SSE 5.8 mph - N/A   Clear
3:35 AM 70.5 °F - 67.5 °F 90% 30.05 in 10.0 mi SSE 5.8 mph - N/A   Clear
3:55 AM 70.0 °F - 67.3 °F 91% 30.05 in 10.0 mi SSE 4.6 mph - N/A   Clear
4:15 AM 69.6 °F - 67.1 °F 92% 30.05 in 10.0 mi SE 5.8 mph - N/A   Clear
4:35 AM 69.1 °F - 66.9 °F 93% 30.04 in 10.0 mi SSE 5.8 mph - N/A   Clear
4:55 AM 68.7 °F - 66.7 °F 93% 30.04 in 7.0 mi SSE 4.6 mph - N/A   Clear
5:15 AM 68.2 °F - 66.6 °F 95% 30.05 in 7.0 mi SE 4.6 mph - N/A   Clear
5:35 AM 68.0 °F - 66.2 °F 94% 30.05 in 7.0 mi SE 4.6 mph - N/A   Clear
5:55 AM 67.6 °F - 66.2 °F 95% 30.06 in 7.0 mi SE 3.5 mph - N/A   Clear
6:15 AM 67.5 °F - 66.2 °F 96% 30.06 in 5.0 mi SE 4.6 mph - N/A   Clear
6:35 AM 67.3 °F - 66.0 °F 96% 30.06 in 5.0 mi SE 3.5 mph - N/A   Clear
6:55 AM 67.1 °F - 65.7 °F 95% 30.06 in 5.0 mi SE 5.8 mph - N/A   Clear
7:15 AM 67.1 °F - 65.8 °F 96% 30.07 in 5.0 mi ESE 5.8 mph - N/A   Clear
7:35 AM 66.9 °F - 65.5 °F 95% 30.07 in 3.0 mi SE 5.8 mph - N/A   Clear
7:55 AM 66.7 °F - 65.5 °F 96% 30.08 in 2.5 mi SE 5.8 mph - N/A   Clear
8:15 AM 67.3 °F - 66.0 °F 96% 30.08 in 4.0 mi SE 5.8 mph - N/A   Clear
8:35 AM 68.2 °F - 66.9 °F 96% 30.09 in 7.0 mi SSE 9.2 mph - N/A   Clear
8:55 AM 69.8 °F - 68.0 °F 94% 30.09 in 10.0 mi SSE 10.4 mph 16.1 mph N/A   Clear
9:15 AM 72.0 °F - 67.8 °F 87% 30.10 in 10.0 mi SSE 9.2 mph - N/A   Clear
9:35 AM 73.8 °F - 68.0 °F 82% 30.10 in 10.0 mi SSE 11.5 mph - N/A   Clear
9:55 AM 75.4 °F - 68.4 °F 79% 30.11 in 10.0 mi SSE 11.5 mph - N/A   Clear
10:15 AM 76.8 °F - 68.4 °F 75% 30.11 in 10.0 mi SSE 13.8 mph 17.3 mph N/A   Clear
10:35 AM 78.1 °F - 68.0 °F 71% 30.11 in 10.0 mi SSE 12.7 mph 20.7 mph N/A   Clear
10:55 AM 79.5 °F - 67.3 °F 66% 30.10 in 10.0 mi SSE 13.8 mph 18.4 mph N/A   Clear
11:35 AM 82.4 °F 84.2 °F 65.1 °F 56% 30.10 in 10.0 mi SSE 15.0 mph 18.4 mph N/A   Clear
12:15 PM 84.4 °F 85.6 °F 63.9 °F 50% 30.09 in 10.0 mi SE 15.0 mph 19.6 mph N/A   Clear
12:35 PM 85.5 °F 85.7 °F 61.5 °F 44% 30.08 in 10.0 mi SSE 8.1 mph 19.6 mph N/A   Clear
12:55 PM 86.2 °F 86.3 °F 61.0 °F 43% 30.07 in 10.0 mi SE 11.5 mph 16.1 mph N/A   Clear
1:35 PM 87.6 °F 86.9 °F 59.4 °F 38% 30.05 in 10.0 mi South 6.9 mph - N/A   Clear
1:55 PM 88.3 °F 87.6 °F 59.2 °F 37% 30.04 in 10.0 mi SE 9.2 mph - N/A   Clear
2:15 PM 88.7 °F 87.8 °F 58.6 °F 36% 30.03 in 10.0 mi South 8.1 mph - N/A   Clear
2:35 PM 89.2 °F 88.2 °F 58.5 °F 35% 30.02 in 10.0 mi SSE 6.9 mph - N/A   Clear
2:55 PM 89.8 °F 88.6 °F 57.9 °F 34% 30.01 in 10.0 mi SE 9.2 mph - N/A   Clear
3:15 PM 90.3 °F 89.0 °F 57.6 °F 33% 30.00 in 10.0 mi SSE 10.4 mph - N/A   Clear
3:35 PM 90.7 °F 89.2 °F 56.8 °F 32% 29.99 in 10.0 mi SE 10.4 mph 16.1 mph N/A   Clear
3:55 PM 91.2 °F 89.4 °F 56.1 °F 30% 29.98 in 10.0 mi SE 8.1 mph - N/A   Clear
4:15 PM 91.2 °F 89.4 °F 55.9 °F 30% 29.98 in 10.0 mi SE 8.1 mph - N/A   Clear
4:35 PM 91.6 °F 89.6 °F 55.2 °F 29% 29.97 in 10.0 mi SE 6.9 mph - N/A   Clear
4:55 PM 91.6 °F 89.6 °F 55.0 °F 29% 29.96 in 10.0 mi SE 9.2 mph - N/A   Clear
5:15 PM 91.6 °F 89.3 °F 54.1 °F 28% 29.96 in 10.0 mi SE 6.9 mph - N/A   Clear
5:35 PM 91.6 °F 89.6 °F 55.2 °F 29% 29.96 in 10.0 mi SE 6.9 mph - N/A   Clear
5:55 PM 91.2 °F 89.4 °F 55.9 °F 30% 29.96 in 10.0 mi SE 6.9 mph - N/A   Clear
6:15 PM 90.5 °F 88.7 °F 56.1 °F 31% 29.96 in 10.0 mi SE 9.2 mph - N/A   Clear
6:35 PM 89.4 °F 87.7 °F 55.8 °F 32% 29.96 in 10.0 mi SE 8.1 mph - N/A   Clear
6:55 PM 88.0 °F 86.7 °F 57.2 °F 35% 29.96 in 10.0 mi SE 5.8 mph - N/A   Clear
7:15 PM 86.0 °F 85.2 °F 58.1 °F 39% 29.96 in 10.0 mi SE 5.8 mph - N/A   Clear
7:35 PM 84.4 °F 83.8 °F 58.3 °F 41% 29.96 in 10.0 mi SE 5.8 mph - N/A   Clear
7:55 PM 82.8 °F 82.7 °F 58.6 °F 44% 29.97 in 10.0 mi SE 4.6 mph - N/A   Clear
8:15 PM 82.6 °F 83.1 °F 61.2 °F 48% 29.98 in 10.0 mi ESE 11.5 mph - N/A   Clear
8:35 PM 83.3 °F 84.4 °F 63.5 °F 51% 29.98 in 10.0 mi ESE 8.1 mph - N/A   Clear
8:55 PM 81.7 °F 82.9 °F 62.8 °F 53% 29.99 in 10.0 mi ESE 10.4 mph - N/A   Clear
9:15 PM 80.2 °F 81.3 °F 61.9 °F 53% 30.00 in 10.0 mi ESE 9.2 mph - N/A   Clear
9:35 PM 79.2 °F - 61.7 °F 55% 30.00 in 10.0 mi ESE 10.4 mph - N/A   Clear
9:55 PM 78.1 °F - 62.1 °F 58% 30.01 in 10.0 mi ESE 10.4 mph - N/A   Clear
10:35 PM 76.1 °F - 64.0 °F 66% 30.02 in 10.0 mi ESE 10.4 mph - N/A   Clear
10:55 PM 75.2 °F - 64.8 °F 70% 30.01 in 10.0 mi ESE 10.4 mph - N/A   Clear
11:15 PM 74.5 °F - 65.5 °F 73% 30.01 in 10.0 mi ESE 9.2 mph - N/A   Clear
11:35 PM 73.8 °F - 65.8 °F 76% 30.01 in 10.0 mi SE 6.9 mph - N/A   Clear
11:55 PM 72.9 °F - 65.8 °F 79% 30.01 in 10.0 mi SE 5.8 mph - N/A   Clear